Location: Gwatt
(46.7204°N, 7.6223°E)
Time: 08:04:38
(UTC+00:00)

Vanguard 3 - Pass Details

Date: 29 January 2021
Orbit: 508 x 3261 km, 33.3° (Epoch: 24 February)

Event Time Altitude Azimuth Distance (km) Brightness Sun altitude
Exits shadow 02:34:52 18° 127° (SE) 2,662 9.9 -44.5°
Drops below altitude 10° 02:37:46 10° 112° (ESE) 3,536 10.7 -44.0°
Sets 02:42:25 0° 101° (ESE) 5,059 11.8 -43.3°
